Location: Dalton
(34.7700°N, 84.9700°W)
Time: 22:37:50
(UTC-04:00)

Tiangong 1 - Pass Details

Date: 13 October 2017
Orbit: 292 x 319 km, 42.8° (Epoch: 22 October)

Event Time Altitude Azimuth Distance (km) Brightness Sun altitude
Rises 19:52:23 0° 303° (WNW) 2,044 5.7 -10.0°
Reaches altitude 10° 19:54:41 10° 322° (NW) 1,207 4.1 -10.5°
Maximum altitude 19:56:47 20° 13° (NNE) 804 2.5 -10.9°
Enters shadow 19:58:02 15° 49° (NE) 962 2.6 -11.2°
